Adam Coufal

Olheiro-Chefe - Sparta Prague
22 Nov 2026
Domingo
Processo

Personalidade

Adaptabilidade (15) Ambição (4) Controvérsia (14) Lealdade (11) Pressão (18) Profissionalismo (14) Espírito Esportivo (3) Temperamento (16)

Perfil

Estilo de Treinamento Democrático
Licença Nacional A
Determinação 12
Gestão de Pessoas 7
Motivação 10
Disciplina 9
Satisfação no Trabalho
83%
Fadiga
0%
Função Olheiro-Chefe
Salário 53.4K p/s
Contrato 14.03.2027

Desempenho

Comportamento Bom
Eficácia do Treinamento
32%
Desenvolvimento do Jogador
55%
Prevenção de Lesões
30%
Implementação Tática
25%

Eventos Recentes

Avaliou um jogador agora
Avaliou um jogador 7d atrás
Participou de uma reunião de recrutamento 7d atrás
Avaliou um jogador 7d atrás
Avaliou um jogador 7d atrás
Avaliou um jogador 7d atrás
Avaliou um jogador 14d atrás
Avaliou um jogador 14d atrás

Monitorando agora

75
Jogador Clube Status Habilidade Confiança Observado Última observação Último voto
Sergi Palencia Los Angeles Football Club Ativo 123 / 141 40% 2 19.11.2026 -
Rúben Neves Al-Hilal Ativo 156 / 137 40% 3 19.11.2026 -
Edu Expósito Espanyol Ativo 146 / 139 40% 5 16.11.2026 -
Morgan Billiat SuperSport United Ativo 128 / 118 40% 1 16.11.2026 -
Ferland Mendy Real Madrid Ativo 150 / 151 40% 2 15.11.2026 -
Christian Krasnodar Ativo 139 / 133 40% 2 15.11.2026 -
Douglas Santos Zenit Ativo 141 / 152 40% 2 14.11.2026 -
Wendel Zenit Ativo 151 / 143 40% 4 11.11.2026 -
César Montes Lokomotiv Moscow Ativo 134 / 131 40% 1 11.11.2026 -
Khuliso Mudau Mamelodi Sundowns Ativo 114 / 134 40% 2 09.11.2026 -
Luke Shaw Lokomotiv Moscow Ativo 148 / 144 40% 5 09.11.2026 -
Sergio Reguilón Inter Miami CF Ativo 143 / 121 40% 1 08.11.2026 -
Marlon Gomes Shakhtar Ativo 124 / 145 40% 2 07.11.2026 -
Maicon Levski Ativo 119 / 119 40% 1 07.11.2026 -
Martin Cedidla Shakhtar Ativo 124 / 136 40% 2 05.11.2026 -
Miha Zajc Dinamo Zagreb Ativo 126 / 114 40% 1 04.11.2026 -
Miles Robinson FC Cincinnati Ativo 124 / 142 40% 1 04.11.2026 -
Tyrick Mitchell Crystal Palace Ativo 140 / 147 40% 1 03.11.2026 -
Manu Morlanes Mallorca Ativo 127 / 143 40% 2 02.11.2026 -
Danilo Boza Dinamo Bucharest Ativo 128 / 131 40% 1 01.11.2026 -
Japhet Sery Larsen Philadelphia Union Ativo 118 / 133 40% 2 31.10.2026 -
Nahuel Tenaglia Maccabi Haifa Ativo 129 / 151 40% 2 30.10.2026 -
Facundo Garcés Alavés Ativo 123 / 135 40% 2 30.10.2026 -
Lukáš Červ Viktoria Plzen Ativo 133 / 128 40% 2 29.10.2026 -
Denis Vavro Viktoria Plzen Ativo 125 / 125 40% 1 29.10.2026 -
Nikita Krivtsov Krasnodar Ativo 136 / 122 40% 1 28.10.2026 -
Dion Lopy Al-Ittihad Ativo 139 / 116 40% 1 28.10.2026 -
David Douděra FC Cincinnati Ativo 131 / 136 40% 2 25.10.2026 -
Éric Bailly Columbus Crew Ativo 151 / 139 40% 2 24.10.2026 -
Nicolás Romero Minnesota United FC Ativo 133 / 120 40% 1 23.10.2026 -
Sergio Barreto Pachuca Ativo 140 / 115 40% 2 22.10.2026 -
Václav Jemelka Viktoria Plzen Ativo 132 / 129 40% 1 22.10.2026 -
Mads Roerslev Southampton Ativo 125 / 130 40% 1 21.10.2026 -
Yves Bissouma Tottenham Ativo 143 / 147 40% 2 19.10.2026 -
Wilder Cartagena Orlando City Ativo 133 / 140 40% 1 19.10.2026 -
Joseph Aidoo Al Ahly Ativo 133 / 112 40% 1 18.10.2026 -
Anton Salétros Chicago Fire Ativo 130 / 114 40% 1 17.10.2026 -
Gustavo Mantuan Zenit Ativo 136 / 134 40% 1 15.10.2026 -
Diadié Samassékou Houston Dynamo Ativo 131 / 126 40% 2 14.10.2026 -
Eduard Atuesta Orlando City Ativo 117 / 133 40% 1 14.10.2026 -
Bryan Ramírez FC Cincinnati Ativo 126 / 124 40% 1 10.10.2026 -
Marcelo Saracchi Houston Dynamo Ativo 142 / 109 40% 2 09.10.2026 -
Thiago New York City Ativo 127 / 119 40% 1 08.10.2026 -
Malte Amundsen Columbus Crew Ativo 134 / 132 40% 1 05.10.2026 -
Marco Palestra Chelsea Ativo 128 / 145 40% 1 12.09.2026 -
Lukas Engel Real Salt Lake Ativo 121 / 125 40% 1 12.09.2026 -
Sergej Milinković-Savić Al-Hilal Ativo 155 / 140 40% 1 09.09.2026 -
Will Hughes Bloemfontein Celtic Ativo 140 / 133 40% 1 09.09.2026 -
Eduard Löwen San Jose Earthquakes Ativo 122 / 112 40% 2 08.09.2026 -
Moisés CSKA Moscow Ativo 122 / 134 40% 1 07.09.2026 -
Rubens Dinamo Moscow Ativo 121 / 136 40% 1 07.09.2026 -
Lucas Sanabria LA Galaxy Ativo 135 / 136 40% 1 06.09.2026 -
Obinna Nwobodo FC Cincinnati Ativo 118 / 111 40% 1 05.09.2026 -
Niklas Dorsch Toronto FC Ativo 125 / 112 40% 2 04.09.2026 -
Cheick Oumar Souaré Viktoria Plzen Ativo 127 / 122 40% 1 04.09.2026 -
Steven Alzate Atlanta United FC Ativo 140 / 107 40% 1 03.09.2026 -
Andreas Hanche-Olsen Chicago Fire Ativo 127 / 141 40% 1 01.09.2026 -
Odin Bjørtuft Bodo/Glimt Ativo 142 / 146 40% 1 31.08.2026 -
Keaton Parks New York City Ativo 122 / 129 40% 1 29.08.2026 -
Dmitry Barinov CSKA Moscow Ativo 136 / 130 40% 1 27.08.2026 -
Matt Miazga FC Cincinnati Ativo 124 / 120 40% 1 26.08.2026 -
Andrey Santos Manchester United Ativo 134 / 137 40% 1 26.08.2026 -
Sam Surridge Nashville SC Ativo 123 / 129 40% 1 18.08.2026 -
Roger Martínez Al-Shabab Negociando 144 / 116 40% 1 18.08.2026 -
Soufiane Rahimi Al Ain Ativo 124 / 153 40% 1 11.08.2026 -
Petar Musa FC Dallas Ativo 138 / 138 40% 1 11.08.2026 -
Nicolás Fernández Mercau New York City Rejeitado 132 / 135 40% 1 09.08.2026 Mais informações
Davide Calabria Panathinaikos Ativo 144 / 139 40% 1 07.08.2026 -
Gabriel Pereira FC Copenhagen Ativo 122 / 126 40% 1 07.08.2026 -
Merih Demiral Al-Ahli Ativo 132 / 149 40% 1 04.08.2026 -
Mads Bech Sørensen FC Midtjylland Ativo 130 / 130 40% 1 04.08.2026 -
Oumar Solet Udinese Ativo 135 / 149 40% 1 02.08.2026 -
Ramón Juárez Club America Ativo 122 / 139 40% 1 02.08.2026 -
Ivan Toney Al-Ahli Ativo 147 / 137 40% 1 01.08.2026 -
Ollie Watkins Al-Hilal Ativo 160 / 140 40% 1 01.08.2026 -